Theta_e
322 324 332 335 337 335 334 332 336 334 332 334 330 339 342 344 346 346 347 347 347 346 347 347 348 350 351 353 354 355 357 357 356 355 353 352 349 346 342 337 333 334 335 340
323 322 328 335 335 335 334 332 333 331 334 332 346 349 352 352 350 351 351 354 352 350 350 352 353 355 357 358 358 358 356 354 351 345 339 334 330 328 328 328 329 330 331 333
323 326 330 334 335 335 333 331 332 336 333 352 353 352 354 355 353 351 353 356 356 355 357 359 359 358 356 354 350 348 344 339 331 329 328 327 328 330 331 332 334 334 335 337
322 331 334 330 330 334 336 333 332 340 350 349 350 354 354 354 349 354 356 358 358 358 357 353 349 346 343 343 341 335 331 330 327 326 326 328 329 328 327 328 331 334 334 333
327 330 329 333 331 332 334 334 330 346 352 352 354 355 356 356 354 353 356 357 356 347 338 336 339 340 337 333 332 334 330 326 324 324 325 326 324 325 327 326 326 326 326 326
325 329 332 330 330 332 331 336 334 350 352 353 353 354 353 357 356 357 356 351 336 333 333 334 334 333 331 334 335 333 328 324 324 324 324 323 323 324 324 323 323 323 323 323
327 327 328 327 330 334 336 336 340 350 353 353 350 344 351 357 357 356 345 335 333 331 330 329 329 331 334 336 334 332 326 324 324 324 325 325 325 325 324 324 324 324 323 323
323 328 332 329 331 335 333 334 340 349 352 353 349 349 354 356 355 343 335 335 333 331 329 328 331 334 335 335 332 331 323 325 325 325 326 326 327 327 326 326 325 324 323 324
325 325 325 334 335 336 335 338 345 346 351 352 349 351 355 354 344 336 334 333 333 330 329 331 334 336 335 333 328 326 324 325 325 328 328 328 327 326 324 318 313 310 309 309
323 323 326 336 335 337 338 338 342 346 348 351 349 351 353 346 339 333 333 332 331 330 329 331 335 336 336 332 324 324 326 327 330 331 330 329 326 321 316 314 313 312 310 310
321 325 331 334 336 337 340 343 347 349 346 351 348 351 344 341 336 332 332 331 330 330 329 331 334 336 337 334 326 325 330 331 332 332 330 329 323 319 316 316 314 312 311 310
324 324 327 335 338 337 345 345 348 350 350 350 347 345 342 339 335 333 332 331 332 332 330 332 335 337 335 333 328 329 332 333 334 333 329 328 324 320 319 317 314 312 311 311
335 338 336 334 336 336 342 346 346 346 345 350 348 343 340 337 337 335 333 331 331 330 331 332 333 333 333 332 331 332 333 333 333 333 329 327 326 321 322 320 314 312 311 312
344 341 340 339 341 342 347 349 349 348 348 349 348 345 343 340 339 335 332 330 331 331 332 333 334 333 332 332 333 333 334 333 333 330 328 326 325 323 324 324 318 311 311 312
344 339 337 340 346 348 348 349 349 349 349 349 347 341 343 343 338 334 331 331 331 332 333 335 334 334 334 334 335 335 334 332 333 329 328 326 325 325 325 325 321 311 310 311
346 344 343 347 347 348 349 349 348 348 348 349 347 342 345 342 335 333 331 333 332 333 334 333 333 334 334 333 333 334 333 333 332 330 329 327 325 323 323 325 322 311 311 311
344 348 348 348 349 349 349 349 347 347 348 349 346 343 346 342 336 334 335 335 333 333 333 333 333 334 334 334 334 333 333 332 331 330 327 323 317 314 313 315 322 311 311 311
333 338 348 349 348 348 348 348 348 348 349 348 346 345 347 341 337 335 336 339 336 334 335 333 333 334 334 335 333 331 330 328 326 323 317 314 313 312 312 312 311 311 311 312
331 335 345 349 349 348 347 347 346 347 347 347 347 348 346 342 336 332 338 340 335 335 333 333 333 333 332 332 332 330 327 320 317 313 312 312 312 312 311 311 312 311 312 312
329 331 338 345 348 348 348 347 346 346 346 348 349 348 345 343 336 338 342 337 333 332 331 331 332 331 329 330 330 327 323 318 314 313 312 312 312 312 312 312 312 312 312 312
326 327 330 338 343 345 348 347 347 347 347 348 347 345 344 339 336 337 335 335 335 334 333 332 331 329 327 328 327 325 321 317 313 313 312 312 312 312 312 312 312 312 312 312
327 331 329 332 338 341 343 347 347 347 346 345 345 345 342 340 339 337 335 334 335 334 333 333 329 327 326 326 325 323 315 313 313 313 312 312 313 312 312 312 312 312 311 312
338 335 333 332 331 335 339 342 343 345 344 343 343 344 342 341 339 335 338 337 334 333 334 330 326 324 320 318 318 314 313 313 313 313 313 313 313 313 313 312 312 312 312 312
336 339 336 333 333 334 334 334 339 339 342 342 341 343 343 341 337 337 336 334 334 333 329 325 322 316 314 313 313 313 313 313 313 313 313 313 313 313 313 312 312 312 312 313
336 334 338 339 336 333 335 338 340 343 345 344 343 343 343 341 334 334 335 334 333 329 324 318 316 314 310 312 313 313 313 313 313 313 312 311 311 312 312 312 312 312 312 312
332 335 336 337 339 339 338 338 338 342 345 345 343 342 343 338 335 335 333 333 329 324 322 320 317 313 309 311 312 313 313 313 313 312 311 311 312 312 312 312 313 312 311 310
332 334 336 337 340 341 341 341 341 342 343 344 344 342 341 337 334 333 333 330 326 324 323 319 313 312 310 311 313 313 313 312 312 311 312 312 312 312 312 313 312 311 310 308
Wind_Speed
8 6 5 6 9 11 7 6 7 6 9 8 9 10 20 22 20 20 18 16 15 14 12 10 8 6 3 2 2 4 5 5 5 5 5 6 9 10 10 10 10 10 10 9
8 6 8 6 5 2 4 3 5 7 5 4 8 15 20 24 26 24 20 17 16 15 14 11 7 4 3 3 2 2 1 1 2 2 4 6 7 7 8 8 8 9 9 8
7 4 5 4 8 7 5 5 7 5 8 8 6 12 23 27 27 27 25 23 20 17 15 12 9 7 6 5 4 3 4 6 6 6 5 5 6 6 7 9 10 9 9 10
4 3 4 9 6 11 16 5 5 5 10 10 15 18 19 23 32 31 28 25 21 17 14 12 9 9 9 9 9 8 9 10 10 8 8 11 12 14 15 14 14 16 17 16
7 4 4 4 4 9 9 10 9 10 10 18 27 19 11 23 30 31 28 23 19 16 14 14 14 14 13 13 13 12 13 13 13 13 13 14 16 19 19 19 18 18 17 15
4 7 13 9 6 11 6 5 10 18 20 26 25 7 5 29 29 29 25 22 20 18 17 16 16 14 13 13 12 13 14 14 14 15 16 17 17 18 20 19 20 18 19 20
3 5 6 7 7 21 9 9 25 34 36 34 16 14 36 35 31 27 25 23 21 18 16 15 16 14 13 13 12 12 13 13 14 14 14 15 15 16 15 14 14 16 17 17
3 5 6 9 10 13 10 13 41 34 43 41 18 24 42 38 35 31 28 26 22 20 18 18 16 15 14 13 12 13 13 13 12 12 11 11 10 11 10 10 10 12 12 12
10 7 6 31 22 31 26 32 36 48 40 39 33 37 46 41 37 34 31 27 24 21 21 19 18 13 13 12 13 15 14 13 12 11 9 9 8 9 10 11 13 14 14 13
6 5 8 29 9 26 19 37 48 50 56 49 40 43 48 45 41 36 32 30 27 24 22 22 19 15 11 13 14 15 14 13 12 9 8 7 7 9 10 12 15 18 17 16
1 1 5 16 14 23 20 29 34 41 59 53 42 54 51 48 42 38 36 31 28 25 22 22 20 17 15 14 15 16 13 11 9 7 6 6 8 9 10 12 14 17 19 17
5 7 4 16 30 15 23 34 42 49 43 47 44 53 52 47 43 40 36 32 29 25 23 22 19 18 17 15 15 15 13 10 7 5 5 5 5 8 8 9 11 13 13 14
3 8 9 9 13 21 31 41 48 52 57 55 45 51 51 46 43 39 33 30 28 26 24 22 21 19 18 16 15 13 9 7 6 5 4 3 5 5 4 5 7 9 7 7
3 11 6 14 16 27 32 38 40 42 48 52 45 48 48 46 43 37 34 30 27 25 24 22 20 18 17 15 14 12 9 6 6 6 5 3 5 5 3 2 3 6 7 6
11 10 9 12 16 32 31 36 38 40 47 46 43 48 48 45 41 36 32 30 28 26 24 22 20 18 17 14 11 11 10 8 10 7 5 4 7 6 6 5 3 6 6 6
16 9 13 22 32 34 35 38 42 42 47 46 45 47 45 41 38 35 34 32 31 30 25 22 19 17 16 14 12 11 10 10 11 7 6 5 5 6 7 7 5 4 6 5
25 19 16 20 29 35 39 40 42 48 50 49 48 45 46 41 37 36 33 30 26 23 21 19 17 16 15 12 11 9 9 10 9 7 5 5 4 5 4 5 8 5 4 0
18 20 9 11 18 23 25 27 34 43 47 49 46 45 45 42 41 37 32 29 27 24 21 18 15 14 12 11 10 9 9 8 7 6 4 5 6 4 4 6 8 5 4 4
13 19 17 9 11 16 16 17 24 33 36 38 40 44 41 38 35 34 33 29 29 28 25 22 19 15 11 11 11 10 10 8 8 3 3 8 7 4 5 7 5 5 4 5
8 12 18 16 9 5 11 15 20 24 25 30 38 42 41 41 36 32 27 27 29 24 23 23 20 17 13 13 12 11 10 9 7 4 5 7 7 7 8 6 2 2 3 5
5 5 11 10 13 12 7 11 17 24 30 36 39 38 37 35 35 27 32 35 30 28 24 21 19 18 16 17 15 14 12 11 9 6 5 8 8 6 6 6 4 6 6 6
7 6 3 8 7 10 11 11 14 19 23 30 29 32 38 35 31 25 29 33 33 30 25 22 20 18 17 17 18 17 15 13 9 5 8 8 6 4 4 7 5 3 6 6
6 4 3 4 8 8 10 11 13 14 17 21 24 32 42 37 38 37 41 36 32 28 25 22 19 18 16 15 17 19 17 13 8 6 10 10 10 6 5 5 5 7 11 13
4 4 2 5 9 11 10 11 13 14 15 18 23 34 40 38 33 35 36 32 30 26 24 22 20 18 16 19 19 17 15 11 9 10 10 9 10 8 7 7 8 10 14 14
5 2 1 3 5 7 10 14 18 19 21 21 24 36 40 38 38 39 36 32 28 25 25 21 18 16 16 18 20 18 14 11 11 9 7 7 7 10 10 10 12 14 12 11
7 6 5 8 12 13 16 19 20 22 23 25 30 38 43 39 39 31 31 29 27 26 23 21 20 18 18 17 17 16 13 11 11 7 11 9 9 10 11 13 14 10 10 10
9 7 7 8 10 16 18 21 24 26 27 28 34 42 43 40 30 28 28 28 27 24 20 19 19 16 17 18 19 17 12 11 10 12 15 12 10 9 8 8 7 7 9 8
Wind_Direction
224 199 183 219 189 178 199 163 151 208 173 218 201 179 169 168 159 153 148 150 155 157 159 160 172 184 207 243 242 246 260 275 289 303 315 317 318 319 321 324 323 321 315 315
228 210 199 224 188 82 73 168 100 127 218 194 138 158 149 164 160 154 147 148 148 149 150 154 159 157 145 128 121 110 90 69 49 15 354 349 348 342 338 334 328 329 328 323
240 217 129 330 232 186 172 175 151 155 207 155 134 166 163 164 165 158 151 150 147 145 145 143 142 139 137 131 120 112 99 87 69 51 41 35 30 28 31 30 26 19 15 9
185 66 175 233 235 208 205 179 156 98 155 164 150 158 169 174 165 159 155 155 153 152 150 148 145 142 138 127 123 115 103 96 87 78 73 70 69 67 63 61 59 57 53 47
153 176 271 287 187 147 159 237 177 134 124 120 128 128 134 171 168 163 162 156 153 152 147 142 142 141 136 129 121 112 102 95 88 80 79 79 78 78 76 75 73 67 61 59
142 167 213 236 224 191 95 230 171 150 149 142 147 151 203 175 170 161 159 159 158 150 144 139 135 132 130 123 117 108 105 100 93 87 84 82 71 68 68 67 68 65 62 60
173 163 263 239 200 145 133 227 164 163 161 159 178 190 174 169 167 166 163 161 157 145 140 142 140 140 138 130 123 115 112 106 100 95 87 77 73 70 66 56 51 53 50 50
119 131 233 171 121 156 195 181 170 171 173 173 159 157 162 167 166 165 166 161 155 152 151 149 149 153 148 142 135 132 127 122 113 104 92 82 67 65 61 58 49 47 38 33
182 206 238 170 176 201 199 179 177 175 175 173 162 163 167 167 170 169 167 161 161 161 156 155 154 161 154 148 143 141 137 132 125 113 96 84 69 66 63 59 52 48 40 34
115 208 213 195 194 198 190 194 181 181 178 181 171 172 169 170 171 168 168 168 167 168 164 159 159 160 165 153 148 149 146 139 128 108 91 90 84 89 84 72 57 49 47 49
155 268 124 205 201 189 197 188 172 171 183 181 172 173 171 172 171 170 171 173 172 171 168 165 165 167 167 159 155 157 155 147 138 113 93 98 107 103 95 71 56 47 52 56
199 190 152 191 200 189 188 181 177 175 171 178 179 176 174 172 173 174 173 174 172 172 170 169 167 169 168 164 161 166 162 157 152 133 111 114 126 128 106 75 59 45 51 60
181 158 202 222 207 209 193 189 188 188 189 178 184 181 176 175 176 176 175 173 175 174 173 171 171 171 173 169 169 174 175 176 179 162 139 139 149 136 83 91 77 63 45 71
215 174 208 206 195 190 187 181 178 177 181 180 181 182 179 179 175 176 177 177 178 175 175 173 171 173 172 172 173 182 187 191 191 172 164 164 171 175 182 161 85 68 56 95
58 184 175 208 197 177 182 176 166 175 178 179 186 185 185 177 174 177 178 179 179 178 177 178 176 177 178 177 179 195 201 207 197 188 193 196 198 205 219 211 180 87 81 98
54 123 138 173 173 174 175 177 174 178 181 181 185 189 182 178 176 177 180 180 182 181 181 181 181 181 178 178 178 187 203 207 210 208 237 237 225 244 247 230 189 117 128 121
48 55 120 145 161 174 181 185 189 188 185 187 189 184 178 177 177 176 178 183 186 185 185 184 183 185 185 191 191 199 202 205 214 218 221 215 214 209 224 220 195 175 153 271
51 46 80 160 165 167 173 183 187 187 187 189 186 179 176 177 175 175 182 186 181 179 183 185 189 190 194 201 198 199 190 196 195 192 219 215 179 164 171 177 182 208 265 298
54 49 63 118 170 175 180 184 186 186 185 183 177 176 177 176 176 182 184 183 188 181 183 184 186 190 201 206 208 205 194 184 186 199 192 176 173 161 163 180 193 239 275 309
76 71 72 90 104 158 179 182 185 184 181 178 175 176 177 176 177 175 185 193 197 194 191 188 189 194 189 203 201 202 199 200 209 199 191 201 190 175 169 186 226 295 284 306
43 86 91 97 106 102 131 173 178 176 177 184 183 182 180 175 179 186 197 196 197 199 195 193 201 200 182 185 193 201 204 210 201 206 220 208 218 205 215 235 279 305 314 325
35 30 119 128 136 140 135 160 181 189 189 185 185 189 181 182 191 187 207 201 194 195 198 203 201 200 189 189 185 187 193 196 204 211 199 201 205 211 270 270 266 290 330 322
60 73 110 197 184 183 174 181 183 188 196 205 198 199 193 192 195 188 195 198 199 199 204 201 200 194 188 186 179 172 179 192 203 203 207 216 217 223 265 240 263 300 314 313
32 67 95 145 173 187 201 207 214 216 227 223 215 205 198 189 192 199 202 200 193 200 197 197 190 191 190 179 180 178 179 187 200 197 204 220 232 237 235 257 282 299 307 315
319 300 308 278 222 199 197 213 218 215 218 214 207 204 199 199 196 197 202 200 192 195 192 185 188 192 184 176 177 179 186 188 192 200 237 231 213 206 230 258 286 301 311 311
323 286 254 247 250 248 231 221 220 221 220 210 204 203 201 201 202 208 195 191 189 189 191 194 194 185 183 183 185 187 185 187 202 233 198 200 213 233 259 279 290 301 317 312
341 312 268 259 258 249 249 243 234 229 224 215 209 203 202 200 202 197 188 186 187 185 194 197 190 189 191 177 180 182 190 204 222 203 202 219 246 267 285 288 289 292 320 325